Home > Weather > Piešťany > Past weeks

Flag for Slovakia Past Weather in Piešťany, Slovakia — Yesterday and Last 2 Weeks

Now
86 °F

Passing clouds.


Feels Like: 85 °F
Forecast: 63 / 84 °F
Wind: 3 mph from Southwest

Location: Piestany

Current Time: Jul 30, 2016 at 7:03:41 PM

Latest Report: Jul 30, 2016 at 6:30 PM


Visibility: N/A

Pressure: 29.92 "Hg

Humidity: 40%

Dew Point: 59 °F

Location of PiešťanyLocation

Past Weather in Piešťany — Graph

°F

Piešťany Temperature Yesterday

Maximum temperature yesterday: 82 °F (at 2:00 PM)
Minimum temperature yesterday: 63 °F (at 2:00 AM)
Average temperature yesterday: 72 °F

High & Low Weather Summary for the Past Weeks

 TemperatureHumidityPressure
High88 °F (Jul 26, 3:30 PM)100% (Jul 16, 8:00 PM)30.15 "Hg (Jul 16, 8:00 PM)
Low52 °F (Jul 18, 5:30 AM)38% (Jul 23, 5:30 PM)29.92 "Hg (Jul 27, 4:30 PM)
Average70 °F75%30.03 "Hg
* Reported Jul 15 5:00 PM — Jul 30 5:30 PM, Piešťany, Weather by CustomWeather, © 2016

Note: Actual official high and low records may vary slightly from our data, if they occured in-between our weather recording intervals... More about our weather records

Advertising

Piešťany Weather History for the Previous 24 Hours

Scroll right to see more
 ConditionsComfort  
Time TempWeatherWind HumidityBarometerVisibility
5:30 PM
Sat, Jul 30
86 °FPassing clouds.6 mph40%29.92 "HgN/A
5:00 PM86 °FPassing clouds.6 mph43%29.92 "HgN/A
4:30 PM82 °FSunny.8 mph51%29.92 "Hg10 mi
4:00 PM84 °FPassing clouds.7 mph43%29.92 "HgN/A
3:30 PM84 °FSunny.3 mph45%29.95 "Hg10 mi
3:00 PM84 °FPassing clouds.8 mph48%29.95 "HgN/A
2:30 PM84 °FPassing clouds.5 mph45%29.95 "HgN/A
2:00 PM82 °FPassing clouds.7 mph48%29.95 "HgN/A
1:30 PM82 °FScattered clouds.6 mph51%29.98 "HgN/A
1:00 PM82 °FScattered clouds.6 mph51%29.98 "HgN/A
12:30 PM82 °FPassing clouds.2 mph48%29.98 "HgN/A
12:00 PM81 °FPassing clouds.2 mph54%29.98 "HgN/A
11:30 AM79 °FPassing clouds.3 mph61%29.98 "HgN/A
11:00 AM77 °FPassing clouds.2 mph69%29.98 "HgN/A
10:30 AM75 °FPartly sunny.3 mph69%30.01 "HgN/A
10:00 AM73 °FSunny.1 mph74%30.01 "Hg10 mi
9:30 AM73 °FPassing clouds.3 mph74%30.01 "HgN/A
9:00 AM70 °FPassing clouds.3 mph78%30.01 "HgN/A
8:30 AM68 °FPassing clouds.3 mph83%30.01 "HgN/A
8:00 AM64 °FPassing clouds.5 mph94%30.01 "HgN/A
7:30 AM64 °FPassing clouds.5 mph94%30.01 "HgN/A
7:00 AM63 °FPassing clouds.3 mph94%30.01 "HgN/A
6:30 AM61 °FSunny.5 mph100%29.98 "Hg10 mi
6:00 AM59 °FClear.5 mph94%30.01 "Hg10 mi
5:30 AM59 °FCool.2 mph100%29.98 "Hg5 mi
5:00 AM59 °FCool.2 mph94%29.98 "HgN/A
4:30 AM61 °FCool.3 mph94%29.98 "HgN/A
4:00 AM61 °FCool.2 mph100%29.98 "HgN/A
3:30 AM61 °FCool.5 mph100%29.98 "HgN/A
3:00 AM63 °FMild.1 mph94%29.98 "HgN/A
2:30 AM63 °FMild.3 mph94%29.98 "HgN/A
2:00 AM63 °FMild.2 mph100%29.98 "HgN/A
1:30 AM64 °FMild.2 mph94%29.98 "HgN/A
1:00 AM64 °FMild.6 mph94%29.98 "HgN/A
12:30 AM66 °FMild.1 mph88%29.98 "HgN/A
12:00 AM66 °FPassing clouds.2 mph94%29.98 "HgN/A
11:30 PM
Fri, Jul 29
66 °FMild.3 mph88%29.95 "HgN/A
11:00 PM70 °FMild.5 mph78%29.95 "HgN/A
10:30 PM72 °FPassing clouds.7 mph78%29.95 "HgN/A
10:00 PM72 °FClear.2 mph78%29.95 "Hg10 mi
9:30 PM72 °FClear.5 mph78%29.95 "Hg10 mi
9:00 PM73 °FSunny.1 mph69%29.95 "Hg10 mi
8:30 PM75 °FSunny.1 mph61%29.92 "Hg10 mi
8:00 PM75 °FSunny.3 mph65%29.92 "Hg10 mi
7:30 PM79 °FPassing clouds.5 mph58%29.92 "HgN/A
7:00 PM81 °FSunny.7 mph54%29.92 "Hg10 mi
Weather by CustomWeather, © 2016

See weather overviewHow to use our weather pages